Time,TemperatureF,DewpointF,PressureIn,WindDirection,WindDirectionDegrees,WindSpeedMPH,WindSpeedGustMPH,Humidity,HourlyPrecipIn,Conditions,Clouds,dailyrainin,SoftwareType,DateUTC
2013-03-26 00:00:00,34.9,28.4,29.60,NNE,24,2.0,8.0,77,0.00,,,0.00,Wunderground v.1.15,2013-03-26 04:00:00,
2013-03-26 00:05:00,34.9,28.4,29.60,ENE,69,2.0,8.0,77,0.00,,,0.00,Wunderground v.1.15,2013-03-26 04:05:00,
2013-03-26 00:10:00,34.9,28.4,29.60,NE,49,2.0,2.0,77,0.00,,,0.00,Wunderground v.1.15,2013-03-26 04:10:00,
2013-03-26 00:15:00,34.8,28.3,29.60,ENE,63,2.0,8.0,77,0.00,,,0.00,Wunderground v.1.15,2013-03-26 04:15:00,
2013-03-26 00:20:00,34.8,28.0,29.60,NNE,32,2.0,2.0,76,0.00,,,0.00,Wunderground v.1.15,2013-03-26 04:20:00,
2013-03-26 00:25:00,34.8,28.3,29.60,NE,47,2.0,8.0,77,0.00,,,0.00,Wunderground v.1.15,2013-03-26 04:25:00,
2013-03-26 00:30:00,34.8,28.3,29.60,NNE,26,1.0,1.0,77,0.00,,,0.00,Wunderground v.1.15,2013-03-26 04:30:00,
2013-03-26 00:40:00,34.6,28.4,29.60,NE,54,1.0,8.0,78,0.00,,,0.00,Wunderground v.1.15,2013-03-26 04:40:00,
2013-03-26 00:50:00,34.4,28.2,29.60,NE,54,1.0,8.0,78,0.00,,,0.00,Wunderground v.1.15,2013-03-26 04:50:00,
2013-03-26 00:55:00,34.4,28.2,29.60,NE,52,1.0,8.0,78,0.00,,,0.00,Wunderground v.1.15,2013-03-26 04:55:00,
2013-03-26 01:00:00,34.4,28.2,29.61,ENE,65,2.0,2.0,78,0.00,,,0.00,Wunderground v.1.15,2013-03-26 05:00:00,
2013-03-26 01:05:00,34.4,28.2,29.60,ENE,60,2.0,8.0,78,0.00,,,0.00,Wunderground v.1.15,2013-03-26 05:05:00,
2013-03-26 01:10:00,34.3,28.2,29.61,ESE,110,2.0,8.0,78,0.00,,,0.00,Wunderground v.1.15,2013-03-26 05:10:00,
2013-03-26 01:20:00,34.2,28.1,29.61,East,80,2.0,2.0,78,0.00,,,0.00,Wunderground v.1.15,2013-03-26 05:20:00,
2013-03-26 01:25:00,34.1,28.0,29.61,ENE,65,2.0,8.0,78,0.00,,,0.00,Wunderground v.1.15,2013-03-26 05:25:00,
2013-03-26 01:30:00,34.0,27.9,29.61,East,80,1.0,8.0,78,0.00,,,0.00,Wunderground v.1.15,2013-03-26 05:30:00,
2013-03-26 01:35:00,33.9,28.1,29.61,ENE,60,1.0,8.0,79,0.00,,,0.00,Wunderground v.1.15,2013-03-26 05:35:00,
2013-03-26 01:40:00,33.8,28.0,29.61,ENE,60,1.0,8.0,79,0.00,,,0.00,Wunderground v.1.15,2013-03-26 05:40:00,
2013-03-26 01:45:00,33.7,28.2,29.61,NE,45,1.0,8.0,80,0.00,,,0.00,Wunderground v.1.15,2013-03-26 05:45:00,
2013-03-26 02:45:00,32.6,28.0,29.62,NE,45,0.0,8.0,83,0.00,,,0.00,Wunderground v.1.15,2013-03-26 06:45:00,
2013-03-26 02:50:00,32.7,28.1,29.62,NE,45,0.0,8.0,83,0.00,,,0.00,Wunderground v.1.15,2013-03-26 06:50:00,
2013-03-26 02:55:00,32.8,28.2,29.61,NE,45,0.0,8.0,83,0.00,,,0.00,Wunderground v.1.15,2013-03-26 06:55:00,
2013-03-26 03:05:00,33.0,28.4,29.62,NE,45,0.0,8.0,83,0.00,,,0.00,Wunderground v.1.15,2013-03-26 07:05:00,
2013-03-26 03:10:00,33.1,28.2,29.62,NE,45,0.0,8.0,82,0.00,,,0.00,Wunderground v.1.15,2013-03-26 07:10:00,
2013-03-26 03:20:00,33.3,28.1,29.62,NNE,22,0.0,8.0,81,0.00,,,0.00,Wunderground v.1.15,2013-03-26 07:20:00,
2013-03-26 03:25:00,33.3,28.1,29.62,NNE,22,0.0,8.0,81,0.00,,,0.00,Wunderground v.1.15,2013-03-26 07:25:00,
2013-03-26 03:30:00,33.4,28.2,29.62,NNE,22,0.0,8.0,81,0.00,,,0.00,Wunderground v.1.15,2013-03-26 07:30:00,
2013-03-26 03:35:00,33.3,28.1,29.62,NNE,22,0.0,8.0,81,0.00,,,0.00,Wunderground v.1.15,2013-03-26 07:35:00,
2013-03-26 03:40:00,33.3,28.1,29.62,NNE,26,0.0,8.0,81,0.00,,,0.00,Wunderground v.1.15,2013-03-26 07:40:00,
2013-03-26 03:50:00,33.2,28.0,29.62,NNE,24,0.0,8.0,81,0.00,,,0.00,Wunderground v.1.15,2013-03-26 07:50:00,
2013-03-26 04:00:00,33.1,27.9,29.62,NNE,28,0.0,8.0,81,0.00,,,0.00,Wunderground v.1.15,2013-03-26 08:00:00,
2013-03-26 04:05:00,33.0,27.8,29.62,NNE,28,0.0,8.0,81,0.00,,,0.00,Wunderground v.1.15,2013-03-26 08:05:00,
2013-03-26 04:10:00,32.8,27.6,29.62,NNE,26,0.0,8.0,81,0.00,,,0.00,Wunderground v.1.15,2013-03-26 08:10:00,
2013-03-26 04:15:00,32.7,27.5,29.62,NNE,26,0.0,8.0,81,0.00,,,0.00,Wunderground v.1.15,2013-03-26 08:15:00,
2013-03-26 04:20:00,32.7,27.8,29.62,NNE,13,1.0,8.0,82,0.00,,,0.00,Wunderground v.1.15,2013-03-26 08:20:00,
2013-03-26 04:25:00,32.6,27.7,29.62,NE,41,1.0,8.0,82,0.00,,,0.00,Wunderground v.1.15,2013-03-26 08:25:00,
2013-03-26 04:30:00,32.7,27.8,29.63,NNE,24,1.0,8.0,82,0.00,,,0.00,Wunderground v.1.15,2013-03-26 08:30:00,
2013-03-26 04:40:00,32.6,28.0,29.63,NNE,30,0.0,8.0,83,0.00,,,0.00,Wunderground v.1.15,2013-03-26 08:40:00,
2013-03-26 04:45:00,32.6,28.0,29.63,NNE,33,1.0,8.0,83,0.00,,,0.00,Wunderground v.1.15,2013-03-26 08:45:00,
2013-03-26 04:50:00,32.7,27.8,29.63,NNE,32,1.0,8.0,82,0.00,,,0.00,Wunderground v.1.15,2013-03-26 08:50:00,
2013-03-26 04:55:00,32.8,27.9,29.64,ENE,57,1.0,8.0,82,0.00,,,0.00,Wunderground v.1.15,2013-03-26 08:55:00,
2013-03-26 05:00:00,32.8,27.9,29.64,NE,38,2.0,8.0,82,0.00,,,0.00,Wunderground v.1.15,2013-03-26 09:00:00,
2013-03-26 05:05:00,33.0,28.4,29.64,NNE,25,2.0,8.0,83,0.00,,,0.00,Wunderground v.1.15,2013-03-26 09:05:00,
2013-03-26 05:10:00,33.0,28.1,29.64,NNE,28,2.0,2.0,82,0.00,,,0.00,Wunderground v.1.15,2013-03-26 09:10:00,
2013-03-26 05:20:00,33.0,28.4,29.64,North,11,1.0,8.0,83,0.00,,,0.00,Wunderground v.1.15,2013-03-26 09:20:00,
2013-03-26 05:25:00,33.1,28.5,29.65,NNW,339,2.0,8.0,83,0.00,,,0.00,Wunderground v.1.15,2013-03-26 09:25:00,
2013-03-26 05:30:00,33.0,28.4,29.65,NNE,16,1.0,8.0,83,0.00,,,0.00,Wunderground v.1.15,2013-03-26 09:30:00,
2013-03-26 05:35:00,33.0,28.1,29.65,NNE,30,1.0,8.0,82,0.00,,,0.00,Wunderground v.1.15,2013-03-26 09:35:00,
2013-03-26 05:40:00,33.0,28.4,29.65,NE,36,2.0,8.0,83,0.00,,,0.00,Wunderground v.1.15,2013-03-26 09:40:00,
2013-03-26 05:45:00,33.0,28.4,29.65,NE,36,1.0,8.0,83,0.00,,,0.00,Wunderground v.1.15,2013-03-26 09:45:00,
2013-03-26 05:50:00,33.0,28.4,29.66,North,11,1.0,1.0,83,0.00,,,0.00,Wunderground v.1.15,2013-03-26 09:50:00,
2013-03-26 05:55:00,33.0,28.1,29.66,NNE,24,1.0,2.0,82,0.00,,,0.00,Wunderground v.1.15,2013-03-26 09:55:00,
2013-03-26 06:05:00,33.0,28.4,29.66,NNE,24,1.0,8.0,83,0.00,,,0.00,Wunderground v.1.15,2013-03-26 10:05:00,
2013-03-26 06:10:00,33.1,28.2,29.66,North,360,1.0,8.0,82,0.00,,,0.00,Wunderground v.1.15,2013-03-26 10:10:00,
2013-03-26 06:15:00,33.1,28.2,29.67,NNE,30,2.0,8.0,82,0.00,,,0.00,Wunderground v.1.15,2013-03-26 10:15:00,
2013-03-26 06:20:00,33.0,28.1,29.67,NE,46,1.0,1.0,82,0.00,,,0.00,Wunderground v.1.15,2013-03-26 10:20:00,
2013-03-26 06:25:00,33.0,28.1,29.67,North,11,0.0,2.0,82,0.00,,,0.00,Wunderground v.1.15,2013-03-26 10:25:00,
2013-03-26 06:30:00,32.9,28.3,29.67,NE,34,1.0,1.0,83,0.00,,,0.00,Wunderground v.1.15,2013-03-26 10:30:00,
2013-03-26 06:35:00,33.0,28.1,29.67,NNE,22,1.0,8.0,82,0.00,,,0.00,Wunderground v.1.15,2013-03-26 10:35:00,
2013-03-26 06:45:00,33.0,28.1,29.68,NNE,22,0.0,8.0,82,0.00,,,0.00,Wunderground v.1.15,2013-03-26 10:45:00,
2013-03-26 06:55:00,33.0,28.1,29.68,NNE,22,0.0,8.0,82,0.00,,,0.00,Wunderground v.1.15,2013-03-26 10:55:00,
2013-03-26 07:00:00,33.0,28.4,29.68,NNE,32,0.0,8.0,83,0.00,,,0.00,Wunderground v.1.15,2013-03-26 11:00:00,
2013-03-26 07:05:00,33.0,28.1,29.68,NNE,32,0.0,8.0,82,0.00,,,0.00,Wunderground v.1.15,2013-03-26 11:05:00,
2013-03-26 07:10:00,33.0,28.4,29.68,NNE,32,0.0,8.0,83,0.00,,,0.00,Wunderground v.1.15,2013-03-26 11:10:00,
2013-03-26 07:15:00,33.0,28.4,29.68,NNE,32,0.0,8.0,83,0.00,,,0.00,Wunderground v.1.15,2013-03-26 11:15:00,
2013-03-26 07:20:00,32.9,28.3,29.68,NNE,32,0.0,8.0,83,0.00,,,0.00,Wunderground v.1.15,2013-03-26 11:20:00,
2013-03-26 07:30:00,33.0,28.1,29.69,NNE,32,0.0,8.0,82,0.00,,,0.00,Wunderground v.1.15,2013-03-26 11:30:00,
2013-03-26 07:35:00,33.1,28.2,29.69,NNE,32,0.0,8.0,82,0.00,,,0.00,Wunderground v.1.15,2013-03-26 11:35:00,
2013-03-26 07:40:00,33.2,28.3,29.70,East,100,0.0,8.0,82,0.00,,,0.00,Wunderground v.1.15,2013-03-26 11:40:00,
2013-03-26 07:45:00,33.3,28.4,29.70,SSW,196,0.0,8.0,82,0.00,,,0.00,Wunderground v.1.15,2013-03-26 11:45:00,
2013-03-26 07:50:00,33.4,28.5,29.70,SSW,194,0.0,8.0,82,0.00,,,0.00,Wunderground v.1.15,2013-03-26 11:50:00,
2013-03-26 07:55:00,33.5,28.6,29.70,SSW,194,0.0,8.0,82,0.00,,,0.00,Wunderground v.1.15,2013-03-26 11:55:00,
2013-03-26 08:00:00,33.6,28.4,29.70,South,171,0.0,8.0,81,0.00,,,0.00,Wunderground v.1.15,2013-03-26 12:00:00,
2013-03-26 08:05:00,33.8,28.9,29.71,South,171,0.0,8.0,82,0.00,,,0.00,Wunderground v.1.15,2013-03-26 12:05:00,
2013-03-26 08:10:00,33.9,28.7,29.71,NNE,24,0.0,8.0,81,0.00,,,0.00,Wunderground v.1.15,2013-03-26 12:10:00,
2013-03-26 08:20:00,34.2,29.0,29.71,NNE,25,0.0,8.0,81,0.00,,,0.00,Wunderground v.1.15,2013-03-26 12:20:00,
2013-03-26 08:25:00,34.3,29.1,29.71,North,10,0.0,8.0,81,0.00,,,0.00,Wunderground v.1.15,2013-03-26 12:25:00,
2013-03-26 08:30:00,34.5,29.0,29.71,NNE,24,0.0,8.0,80,0.00,,,0.00,Wunderground v.1.15,2013-03-26 12:30:00,
2013-03-26 08:35:00,34.6,28.8,29.71,NNE,30,0.0,8.0,79,0.00,,,0.00,Wunderground v.1.15,2013-03-26 12:35:00,
2013-03-26 08:40:00,34.7,28.9,29.71,NNE,30,0.0,8.0,79,0.00,,,0.00,Wunderground v.1.15,2013-03-26 12:40:00,
2013-03-26 08:45:00,34.9,29.0,29.71,NNE,15,1.0,8.0,79,0.00,,,0.00,Wunderground v.1.15,2013-03-26 12:45:00,
2013-03-26 08:50:00,35.0,29.1,29.71,NNE,19,1.0,8.0,79,0.00,,,0.00,Wunderground v.1.15,2013-03-26 12:50:00,
2013-03-26 09:00:00,35.2,29.3,29.71,NE,35,1.0,1.0,79,0.00,,,0.00,Wunderground v.1.15,2013-03-26 13:00:00,
2013-03-26 09:05:00,35.3,29.1,29.71,NNE,27,0.0,8.0,78,0.00,,,0.00,Wunderground v.1.15,2013-03-26 13:05:00,
2013-03-26 09:10:00,35.4,29.2,29.71,NNE,17,1.0,8.0,78,0.00,,,0.00,Wunderground v.1.15,2013-03-26 13:10:00,
2013-03-26 09:15:00,35.4,29.2,29.71,NE,49,1.0,8.0,78,0.00,,,0.00,Wunderground v.1.15,2013-03-26 13:15:00,
2013-03-26 09:20:00,35.5,29.3,29.71,NE,35,2.0,8.0,78,0.00,,,0.00,Wunderground v.1.15,2013-03-26 13:20:00,
2013-03-26 09:25:00,35.5,29.0,29.71,North,360,2.0,8.0,77,0.00,,,0.00,Wunderground v.1.15,2013-03-26 13:25:00,
2013-03-26 09:30:00,35.5,29.0,29.71,NE,36,3.0,3.0,77,0.00,,,0.00,Wunderground v.1.15,2013-03-26 13:30:00,
2013-03-26 09:35:00,35.7,29.2,29.71,NE,51,3.0,8.0,77,0.00,,,0.00,Wunderground v.1.15,2013-03-26 13:35:00,
2013-03-26 09:45:00,36.0,29.5,29.72,NNE,29,1.0,8.0,77,0.00,,,0.00,Wunderground v.1.15,2013-03-26 13:45:00,
2013-03-26 09:50:00,36.3,29.8,29.72,East,86,2.0,8.0,77,0.00,,,0.00,Wunderground v.1.15,2013-03-26 13:50:00,
2013-03-26 09:55:00,36.5,30.0,29.73,ENE,64,2.0,8.0,77,0.00,,,0.00,Wunderground v.1.15,2013-03-26 13:55:00,
2013-03-26 10:00:00,36.5,29.7,29.73,NE,44,3.0,3.0,76,0.00,,,0.00,Wunderground v.1.15,2013-03-26 14:00:00,
2013-03-26 10:05:00,36.6,30.1,29.73,NNE,32,2.0,8.0,77,0.00,,,0.00,Wunderground v.1.15,2013-03-26 14:05:00,
2013-03-26 10:10:00,36.7,30.2,29.73,ENE,63,2.0,2.0,77,0.00,,,0.00,Wunderground v.1.15,2013-03-26 14:10:00,
2013-03-26 10:15:00,37.0,30.5,29.73,East,89,2.0,8.0,77,0.00,,,0.00,Wunderground v.1.15,2013-03-26 14:15:00,
2013-03-26 10:20:00,37.0,30.5,29.73,North,355,3.0,8.0,77,0.00,,,0.00,Wunderground v.1.15,2013-03-26 14:20:00,
2013-03-26 10:30:00,36.6,30.1,29.73,NE,47,4.0,8.0,77,0.00,,,0.00,Wunderground v.1.15,2013-03-26 14:30:00,
2013-03-26 10:35:00,36.5,30.3,29.73,NNE,22,5.0,8.0,78,0.00,,,0.00,Wunderground v.1.15,2013-03-26 14:35:00,
2013-03-26 10:40:00,36.7,30.2,29.74,North,360,4.0,4.0,77,0.00,,,0.00,Wunderground v.1.15,2013-03-26 14:40:00,
2013-03-26 10:45:00,37.1,30.6,29.74,ENE,77,2.0,8.0,77,0.00,,,0.00,Wunderground v.1.15,2013-03-26 14:45:00,
2013-03-26 10:50:00,37.4,30.2,29.74,NW,323,3.0,3.0,75,0.00,,,0.00,Wunderground v.1.15,2013-03-26 14:50:00,
2013-03-26 10:55:00,38.1,30.9,29.74,NNE,24,4.0,4.0,75,0.00,,,0.00,Wunderground v.1.15,2013-03-26 14:55:00,
2013-03-26 11:00:00,38.9,31.0,29.74,NNE,33,3.0,8.0,73,0.00,,,0.00,Wunderground v.1.15,2013-03-26 15:00:00,
2013-03-26 11:10:00,38.4,30.8,29.74,NE,46,4.0,4.0,74,0.00,,,0.00,Wunderground v.1.15,2013-03-26 15:10:00,
2013-03-26 11:15:00,38.4,30.5,29.74,North,355,3.0,8.0,73,0.00,,,0.00,Wunderground v.1.15,2013-03-26 15:15:00,
2013-03-26 11:20:00,38.2,30.6,29.74,NE,52,3.0,3.0,74,0.00,,,0.00,Wunderground v.1.15,2013-03-26 15:20:00,
2013-03-26 11:25:00,38.0,29.8,29.74,ENE,78,4.0,4.0,72,0.00,,,0.00,Wunderground v.1.15,2013-03-26 15:25:00,
2013-03-26 11:30:00,37.9,29.7,29.75,NE,50,4.0,8.0,72,0.00,,,0.00,Wunderground v.1.15,2013-03-26 15:30:00,
2013-03-26 11:35:00,37.8,29.6,29.75,NNE,33,4.0,8.0,72,0.00,,,0.00,Wunderground v.1.15,2013-03-26 15:35:00,
2013-03-26 11:40:00,37.8,29.6,29.75,NNE,13,4.0,8.0,72,0.00,,,0.00,Wunderground v.1.15,2013-03-26 15:40:00,
2013-03-26 11:50:00,38.7,30.1,29.75,NE,34,4.0,4.0,71,0.00,,,0.00,Wunderground v.1.15,2013-03-26 15:50:00,
2013-03-26 12:00:00,40.7,31.0,29.75,NNE,13,3.0,8.0,68,0.00,,,0.00,Wunderground v.1.15,2013-03-26 16:00:00,
2013-03-26 12:05:00,41.2,31.1,29.74,West,271,4.0,8.0,67,0.00,,,0.00,Wunderground v.1.15,2013-03-26 16:05:00,
2013-03-26 12:10:00,40.9,30.0,29.75,NNE,17,4.0,4.0,65,0.00,,,0.00,Wunderground v.1.15,2013-03-26 16:10:00,
2013-03-26 12:15:00,40.7,30.2,29.75,East,87,4.0,8.0,66,0.00,,,0.00,Wunderground v.1.15,2013-03-26 16:15:00,
2013-03-26 12:20:00,39.8,29.4,29.75,ENE,71,4.0,8.0,66,0.00,,,0.00,Wunderground v.1.15,2013-03-26 16:20:00,
2013-03-26 12:30:00,39.6,30.3,29.75,NW,313,3.0,3.0,69,0.00,,,0.00,Wunderground v.1.15,2013-03-26 16:30:00,
2013-03-26 12:40:00,41.6,30.7,29.74,NE,34,4.0,8.0,65,0.00,,,0.00,Wunderground v.1.15,2013-03-26 16:40:00,
2013-03-26 12:45:00,41.4,30.5,29.74,NE,44,4.0,8.0,65,0.00,,,0.00,Wunderground v.1.15,2013-03-26 16:45:00,
2013-03-26 12:50:00,40.8,29.6,29.74,ESE,118,4.0,8.0,64,0.00,,,0.00,Wunderground v.1.15,2013-03-26 16:50:00,
2013-03-26 12:55:00,40.0,29.2,29.75,North,11,4.0,8.0,65,0.00,,,0.00,Wunderground v.1.15,2013-03-26 16:55:00,
2013-03-26 13:00:00,40.0,29.6,29.75,East,85,4.0,4.0,66,0.00,,,0.00,Wunderground v.1.15,2013-03-26 17:00:00,
2013-03-26 13:05:00,40.4,29.6,29.75,North,10,3.0,7.0,65,0.00,,,0.00,Wunderground v.1.15,2013-03-26 17:05:00,
2013-03-26 13:15:00,41.5,30.2,29.75,North,350,5.0,8.0,64,0.00,,,0.00,Wunderground v.1.15,2013-03-26 17:15:00,
2013-03-26 13:20:00,41.9,29.4,29.75,ENE,57,5.0,8.0,61,0.00,,,0.00,Wunderground v.1.15,2013-03-26 17:20:00,
2013-03-26 13:25:00,41.0,29.4,29.75,NE,56,4.0,8.0,63,0.00,,,0.00,Wunderground v.1.15,2013-03-26 17:25:00,
2013-03-26 13:30:00,41.9,30.6,29.75,ENE,59,4.0,4.0,64,0.00,,,0.00,Wunderground v.1.15,2013-03-26 17:30:00,
2013-03-26 13:35:00,42.3,29.4,29.74,ENE,77,5.0,5.0,60,0.00,,,0.00,Wunderground v.1.15,2013-03-26 17:35:00,
2013-03-26 13:40:00,42.3,29.0,29.75,ENE,78,6.0,11.0,59,0.00,,,0.00,Wunderground v.1.15,2013-03-26 17:40:00,
2013-03-26 13:45:00,41.9,29.4,29.74,NE,53,6.0,11.0,61,0.00,,,0.00,Wunderground v.1.15,2013-03-26 17:45:00,
2013-03-26 13:50:00,42.3,29.0,29.74,NNE,23,5.0,5.0,59,0.00,,,0.00,Wunderground v.1.15,2013-03-26 17:50:00,
2013-03-26 13:55:00,42.1,27.9,29.75,ESE,111,5.0,8.0,57,0.00,,,0.00,Wunderground v.1.15,2013-03-26 17:55:00,
2013-03-26 14:05:00,43.2,29.0,29.74,North,11,4.0,5.0,57,0.00,,,0.00,Wunderground v.1.15,2013-03-26 18:05:00,
2013-03-26 14:10:00,42.9,28.7,29.74,NE,41,5.0,5.0,57,0.00,,,0.00,Wunderground v.1.15,2013-03-26 18:10:00,
2013-03-26 14:15:00,43.4,29.2,29.74,NE,34,5.0,8.0,57,0.00,,,0.00,Wunderground v.1.15,2013-03-26 18:15:00,
2013-03-26 14:20:00,42.8,28.2,29.74,NNE,30,5.0,5.0,56,0.00,,,0.00,Wunderground v.1.15,2013-03-26 18:20:00,
2013-03-26 14:25:00,43.0,27.9,29.74,NNE,33,4.0,8.0,55,0.00,,,0.00,Wunderground v.1.15,2013-03-26 18:25:00,
2013-03-26 14:30:00,43.2,28.1,29.74,North,355,4.0,8.0,55,0.00,,,0.00,Wunderground v.1.15,2013-03-26 18:30:00,
2013-03-26 14:35:00,43.4,27.4,29.74,NE,49,6.0,8.0,53,0.00,,,0.00,Wunderground v.1.15,2013-03-26 18:35:00,
2013-03-26 14:45:00,42.4,26.9,29.74,ENE,75,3.0,8.0,54,0.00,,,0.00,Wunderground v.1.15,2013-03-26 18:45:00,
2013-03-26 14:50:00,41.9,26.4,29.74,NE,55,3.0,8.0,54,0.00,,,0.00,Wunderground v.1.15,2013-03-26 18:50:00,
2013-03-26 14:55:00,41.6,27.1,29.74,NW,319,4.0,8.0,56,0.00,,,0.00,Wunderground v.1.15,2013-03-26 18:55:00,
2013-03-26 15:00:00,42.9,27.8,29.74,NE,41,5.0,5.0,55,0.00,,,0.00,Wunderground v.1.15,2013-03-26 19:00:00,
2013-03-26 15:05:00,43.6,27.1,29.74,NNW,340,5.0,8.0,52,0.00,,,0.00,Wunderground v.1.15,2013-03-26 19:05:00,
2013-03-26 15:10:00,44.4,27.4,29.74,North,5,5.0,5.0,51,0.00,,,0.00,Wunderground v.1.15,2013-03-26 19:10:00,
2013-03-26 15:15:00,44.6,26.6,29.74,ENE,69,3.0,8.0,49,0.00,,,0.00,Wunderground v.1.15,2013-03-26 19:15:00,
2013-03-26 15:20:00,43.1,26.2,29.74,ENE,63,4.0,8.0,51,0.00,,,0.00,Wunderground v.1.15,2013-03-26 19:20:00,
2013-03-26 15:25:00,42.6,26.2,29.74,ENE,57,5.0,8.0,52,0.00,,,0.00,Wunderground v.1.15,2013-03-26 19:25:00,
2013-03-26 15:35:00,42.8,26.8,29.74,NE,55,3.0,8.0,53,0.00,,,0.00,Wunderground v.1.15,2013-03-26 19:35:00,
2013-03-26 15:40:00,42.9,26.5,29.74,North,11,3.0,3.0,52,0.00,,,0.00,Wunderground v.1.15,2013-03-26 19:40:00,
2013-03-26 15:45:00,43.6,26.6,29.74,NNW,336,4.0,4.0,51,0.00,,,0.00,Wunderground v.1.15,2013-03-26 19:45:00,
2013-03-26 15:50:00,44.2,26.7,29.74,NE,35,4.0,8.0,50,0.00,,,0.00,Wunderground v.1.15,2013-03-26 19:50:00,
2013-03-26 15:55:00,44.7,26.2,29.74,ENE,76,4.0,8.0,48,0.00,,,0.00,Wunderground v.1.15,2013-03-26 19:55:00,
2013-03-26 16:00:00,44.9,25.9,29.75,ENE,59,4.0,4.0,47,0.00,,,0.00,Wunderground v.1.15,2013-03-26 20:00:00,
2013-03-26 16:05:00,43.3,25.9,29.75,NE,45,4.0,8.0,50,0.00,,,0.00,Wunderground v.1.15,2013-03-26 20:05:00,
2013-03-26 16:15:00,42.3,25.4,29.75,ENE,78,4.0,8.0,51,0.00,,,0.00,Wunderground v.1.15,2013-03-26 20:15:00,
2013-03-26 16:20:00,41.6,25.7,29.75,NE,50,5.0,8.0,53,0.00,,,0.00,Wunderground v.1.15,2013-03-26 20:20:00,
2013-03-26 16:25:00,41.8,25.4,29.75,North,9,5.0,8.0,52,0.00,,,0.00,Wunderground v.1.15,2013-03-26 20:25:00,
2013-03-26 16:30:00,42.0,26.1,29.75,NE,42,3.0,8.0,53,0.00,,,0.00,Wunderground v.1.15,2013-03-26 20:30:00,
2013-03-26 16:35:00,42.7,26.7,29.75,NE,51,3.0,8.0,53,0.00,,,0.00,Wunderground v.1.15,2013-03-26 20:35:00,
2013-03-26 16:40:00,43.2,26.3,29.75,NE,50,4.0,8.0,51,0.00,,,0.00,Wunderground v.1.15,2013-03-26 20:40:00,
2013-03-26 16:45:00,43.4,25.0,29.75,ENE,69,6.0,13.0,48,0.00,,,0.00,Wunderground v.1.15,2013-03-26 20:45:00,
2013-03-26 16:50:00,42.6,24.3,29.75,NNE,13,7.0,7.0,48,0.00,,,0.00,Wunderground v.1.15,2013-03-26 20:50:00,
2013-03-26 17:00:00,41.4,24.6,29.76,NE,44,3.0,8.0,51,0.00,,,0.00,Wunderground v.1.15,2013-03-26 21:00:00,
2013-03-26 17:05:00,41.2,24.4,29.76,North,11,3.0,8.0,51,0.00,,,0.00,Wunderground v.1.15,2013-03-26 21:05:00,
2013-03-26 17:10:00,41.3,25.0,29.76,NE,38,3.0,3.0,52,0.00,,,0.00,Wunderground v.1.15,2013-03-26 21:10:00,
2013-03-26 17:15:00,41.6,25.3,29.76,ENE,65,2.0,8.0,52,0.00,,,0.00,Wunderground v.1.15,2013-03-26 21:15:00,
2013-03-26 17:20:00,42.0,24.7,29.76,NE,38,2.0,8.0,50,0.00,,,0.00,Wunderground v.1.15,2013-03-26 21:20:00,
2013-03-26 17:25:00,41.9,24.6,29.76,NNE,33,4.0,8.0,50,0.00,,,0.00,Wunderground v.1.15,2013-03-26 21:25:00,
2013-03-26 17:30:00,42.0,24.7,29.76,ENE,65,3.0,3.0,50,0.00,,,0.00,Wunderground v.1.15,2013-03-26 21:30:00,
2013-03-26 17:40:00,41.8,24.0,29.77,NE,34,3.0,3.0,49,0.00,,,0.00,Wunderground v.1.15,2013-03-26 21:40:00,
2013-03-26 17:45:00,41.5,24.2,29.77,East,83,3.0,7.0,50,0.00,,,0.00,Wunderground v.1.15,2013-03-26 21:45:00,
2013-03-26 17:50:00,41.4,24.6,29.77,NE,42,2.0,8.0,51,0.00,,,0.00,Wunderground v.1.15,2013-03-26 21:50:00,
2013-03-26 17:55:00,41.6,25.3,29.77,North,5,1.0,8.0,52,0.00,,,0.00,Wunderground v.1.15,2013-03-26 21:55:00,
2013-03-26 18:00:00,42.0,24.2,29.77,NE,44,1.0,8.0,49,0.00,,,0.00,Wunderground v.1.15,2013-03-26 22:00:00,
2013-03-26 18:05:00,41.8,24.0,29.77,NE,53,2.0,8.0,49,0.00,,,0.00,Wunderground v.1.15,2013-03-26 22:05:00,
2013-03-26 18:10:00,41.6,24.3,29.78,NNW,336,3.0,3.0,50,0.00,,,0.00,Wunderground v.1.15,2013-03-26 22:10:00,
2013-03-26 18:15:00,41.4,24.6,29.78,North,9,3.0,8.0,51,0.00,,,0.00,Wunderground v.1.15,2013-03-26 22:15:00,
2013-03-26 18:20:00,41.0,24.2,29.78,ENE,57,3.0,8.0,51,0.00,,,0.00,Wunderground v.1.15,2013-03-26 22:20:00,
2013-03-26 18:30:00,40.4,24.1,29.79,North,360,2.0,8.0,52,0.00,,,0.00,Wunderground v.1.15,2013-03-26 22:30:00,
2013-03-26 18:35:00,40.1,23.9,29.79,NE,55,1.0,8.0,52,0.00,,,0.00,Wunderground v.1.15,2013-03-26 22:35:00,
2013-03-26 18:40:00,39.8,23.6,29.79,ENE,76,1.0,8.0,52,0.00,,,0.00,Wunderground v.1.15,2013-03-26 22:40:00,
2013-03-26 18:45:00,39.5,23.8,29.79,North,5,2.0,8.0,53,0.00,,,0.00,Wunderground v.1.15,2013-03-26 22:45:00,
2013-03-26 18:50:00,39.2,23.5,29.79,NE,39,1.0,8.0,53,0.00,,,0.00,Wunderground v.1.15,2013-03-26 22:50:00,
2013-03-26 18:55:00,39.1,23.4,29.79,NNE,15,2.0,8.0,53,0.00,,,0.00,Wunderground v.1.15,2013-03-26 22:55:00,
2013-03-26 19:00:00,38.9,23.2,29.79,NE,39,2.0,2.0,53,0.00,,,0.00,Wunderground v.1.15,2013-03-26 23:00:00,
2013-03-26 19:05:00,38.7,23.5,29.79,NE,43,1.0,8.0,54,0.00,,,0.00,Wunderground v.1.15,2013-03-26 23:05:00,
2013-03-26 19:15:00,38.3,23.5,29.80,NNE,26,1.0,8.0,55,0.00,,,0.00,Wunderground v.1.15,2013-03-26 23:15:00,
2013-03-26 19:20:00,38.1,23.3,29.80,NNE,26,0.0,8.0,55,0.00,,,0.00,Wunderground v.1.15,2013-03-26 23:20:00,
2013-03-26 19:25:00,37.9,23.2,29.80,NNE,26,0.0,8.0,55,0.00,,,0.00,Wunderground v.1.15,2013-03-26 23:25:00,
2013-03-26 19:30:00,37.6,23.3,29.80,NNE,26,0.0,8.0,56,0.00,,,0.00,Wunderground v.1.15,2013-03-26 23:30:00,
2013-03-26 19:35:00,37.3,23.0,29.80,NNE,26,0.0,8.0,56,0.00,,,0.00,Wunderground v.1.15,2013-03-26 23:35:00,
2013-03-26 19:40:00,37.0,23.2,29.80,NNE,26,0.0,8.0,57,0.00,,,0.00,Wunderground v.1.15,2013-03-26 23:40:00,
2013-03-26 19:45:00,36.4,23.0,29.81,NNE,26,0.0,8.0,58,0.00,,,0.00,Wunderground v.1.15,2013-03-26 23:45:00,
2013-03-26 19:55:00,35.9,23.0,29.81,NNE,26,0.0,8.0,59,0.00,,,0.00,Wunderground v.1.15,2013-03-26 23:55:00,
2013-03-26 20:00:00,35.7,22.8,29.81,NNE,26,0.0,8.0,59,0.00,,,0.00,Wunderground v.1.15,2013-03-27 00:00:00,
2013-03-26 20:05:00,35.6,23.1,29.81,NNE,26,0.0,8.0,60,0.00,,,0.00,Wunderground v.1.15,2013-03-27 00:05:00,
2013-03-26 20:10:00,35.6,23.1,29.81,NNE,26,0.0,8.0,60,0.00,,,0.00,Wunderground v.1.15,2013-03-27 00:10:00,
2013-03-26 20:15:00,35.5,23.0,29.82,NNE,26,0.0,8.0,60,0.00,,,0.00,Wunderground v.1.15,2013-03-27 00:15:00,
2013-03-26 20:20:00,35.2,22.7,29.82,NNE,26,0.0,8.0,60,0.00,,,0.00,Wunderground v.1.15,2013-03-27 00:20:00,
2013-03-26 20:25:00,34.8,22.7,29.82,NNE,26,0.0,8.0,61,0.00,,,0.00,Wunderground v.1.15,2013-03-27 00:25:00,
2013-03-26 20:30:00,34.3,23.0,29.82,NNE,26,0.0,8.0,63,0.00,,,0.00,Wunderground v.1.15,2013-03-27 00:30:00,
2013-03-26 20:40:00,33.5,22.6,29.82,NNE,26,1.0,1.0,64,0.00,,,0.00,Wunderground v.1.15,2013-03-27 00:40:00,
2013-03-26 20:45:00,33.6,22.7,29.83,NNE,26,1.0,8.0,64,0.00,,,0.00,Wunderground v.1.15,2013-03-27 00:45:00,
2013-03-26 20:50:00,33.7,22.8,29.83,NNE,26,1.0,8.0,64,0.00,,,0.00,Wunderground v.1.15,2013-03-27 00:50:00,
2013-03-26 20:55:00,33.8,22.5,29.83,NNE,26,1.0,8.0,63,0.00,,,0.00,Wunderground v.1.15,2013-03-27 00:55:00,
2013-03-26 21:00:00,33.7,22.4,29.83,NNE,26,1.0,1.0,63,0.00,,,0.00,Wunderground v.1.15,2013-03-27 01:00:00,
2013-03-26 21:05:00,33.6,22.7,29.83,NNE,26,1.0,2.0,64,0.00,,,0.00,Wunderground v.1.15,2013-03-27 01:05:00,
2013-03-26 21:10:00,33.6,22.7,29.83,NNE,26,1.0,1.0,64,0.00,,,0.00,Wunderground v.1.15,2013-03-27 01:10:00,
2013-03-26 21:20:00,33.7,22.8,29.83,NNE,26,1.0,8.0,64,0.00,,,0.00,Wunderground v.1.15,2013-03-27 01:20:00,
2013-03-26 21:25:00,33.7,22.8,29.83,NNE,26,1.0,8.0,64,0.00,,,0.00,Wunderground v.1.15,2013-03-27 01:25:00,
2013-03-26 21:30:00,33.7,22.8,29.84,NNE,26,1.0,8.0,64,0.00,,,0.00,Wunderground v.1.15,2013-03-27 01:30:00,
2013-03-26 21:35:00,33.6,23.1,29.84,NNE,26,1.0,8.0,65,0.00,,,0.00,Wunderground v.1.15,2013-03-27 01:35:00,
2013-03-26 21:40:00,33.4,22.9,29.84,NNE,26,1.0,8.0,65,0.00,,,0.00,Wunderground v.1.15,2013-03-27 01:40:00,
2013-03-26 21:45:00,33.3,23.2,29.84,NNE,26,1.0,8.0,66,0.00,,,0.00,Wunderground v.1.15,2013-03-27 01:45:00,
2013-03-26 21:50:00,33.3,23.2,29.84,NNE,26,1.0,8.0,66,0.00,,,0.00,Wunderground v.1.15,2013-03-27 01:50:00,
2013-03-26 21:55:00,33.2,23.4,29.84,NNE,26,1.0,8.0,67,0.00,,,0.00,Wunderground v.1.15,2013-03-27 01:55:00,
2013-03-26 22:05:00,32.8,23.0,29.85,NNE,26,2.0,8.0,67,0.00,,,0.00,Wunderground v.1.15,2013-03-27 02:05:00,
2013-03-26 22:10:00,33.0,23.6,29.85,NNE,26,1.0,8.0,68,0.00,,,0.00,Wunderground v.1.15,2013-03-27 02:10:00,
2013-03-26 22:15:00,33.1,23.7,29.84,NNE,26,1.0,8.0,68,0.00,,,0.00,Wunderground v.1.15,2013-03-27 02:15:00,
2013-03-26 22:20:00,33.0,23.6,29.85,NNE,26,1.0,8.0,68,0.00,,,0.00,Wunderground v.1.15,2013-03-27 02:20:00,
2013-03-26 22:25:00,33.1,23.7,29.84,NNE,26,1.0,8.0,68,0.00,,,0.00,Wunderground v.1.15,2013-03-27 02:25:00,
2013-03-26 22:30:00,33.2,23.8,29.84,NNE,26,1.0,1.0,68,0.00,,,0.00,Wunderground v.1.15,2013-03-27 02:30:00,
2013-03-26 22:35:00,33.3,23.9,29.85,NNE,26,1.0,8.0,68,0.00,,,0.00,Wunderground v.1.15,2013-03-27 02:35:00,
2013-03-26 22:40:00,33.5,24.1,29.85,NNE,26,1.0,8.0,68,0.00,,,0.00,Wunderground v.1.15,2013-03-27 02:40:00,
2013-03-26 22:50:00,33.4,24.0,29.85,NNE,26,1.0,8.0,68,0.00,,,0.00,Wunderground v.1.15,2013-03-27 02:50:00,
2013-03-26 22:55:00,33.5,24.4,29.84,NE,41,1.0,8.0,69,0.00,,,0.00,Wunderground v.1.15,2013-03-27 02:55:00,
2013-03-26 23:00:00,33.4,24.3,29.84,NE,41,1.0,1.0,69,0.00,,,0.00,Wunderground v.1.15,2013-03-27 03:00:00,
2013-03-26 23:05:00,33.4,24.3,29.84,NE,41,1.0,8.0,69,0.00,,,0.00,Wunderground v.1.15,2013-03-27 03:05:00,
2013-03-26 23:10:00,33.0,23.9,29.84,NE,41,1.0,1.0,69,0.00,,,0.00,Wunderground v.1.15,2013-03-27 03:10:00,
2013-03-26 23:15:00,33.0,23.9,29.84,NE,41,1.0,8.0,69,0.00,,,0.00,Wunderground v.1.15,2013-03-27 03:15:00,
2013-03-26 23:25:00,33.4,24.0,29.84,NNE,28,1.0,8.0,68,0.00,,,0.00,Wunderground v.1.15,2013-03-27 03:25:00,
2013-03-26 23:30:00,33.6,24.2,29.85,NNE,28,1.0,1.0,68,0.00,,,0.00,Wunderground v.1.15,2013-03-27 03:30:00,
2013-03-26 23:35:00,33.7,23.9,29.85,NNE,28,0.0,8.0,67,0.00,,,0.00,Wunderground v.1.15,2013-03-27 03:35:00,
2013-03-26 23:45:00,33.5,23.4,29.85,NNE,28,0.0,8.0,66,0.00,,,0.00,Wunderground v.1.15,2013-03-27 03:45:00,
2013-03-26 23:50:00,33.6,23.4,29.85,NNE,28,0.0,8.0,66,0.00,,,0.00,Wunderground v.1.15,2013-03-27 03:50:00,